Lexington Weather

Lexington, Massachusetts, USA

68°F
9/23/2021 5:29am 
  • Lexington Conditions: Mostly cloudy
  • Temperature: 67.6°F / 19.8°CWarmer 0.7°F than last hour.
  • Dew Point: 66.4°FIncreased 0.7°Fsince last hour.
  • Relative Humidity: 96
  • Wind: Calm, 10-min avg: Calm, gust: 2 mph
  • Barometer: 30.03 in Steady
  • Visibility: 10 miles
  • Rain Today: 0.00 in
  •   

Regional Weather Roundup
for Boston / Norton, MA

        
000
ASUS41 KBOX 201004
RWRBOX

REGIONAL WEATHER ROUNDUP
NATIONAL WEATHER SERVICE BOSTON/NORTON MA
600 AM EDT MON SEP 20 2021

NOTE:  "FAIR" INDICATES FEW OR NO CLOUDS BELOW 12,000 FEET WITH NO 
SIGNIFICANT WEATHER AND/OR OBSTRUCTIONS TO VISIBILITY.

MAZALL-201100-
EASTERN MASSACHUSETTS
  
CITY           SKY/WX    TMP DP  RH WIND       PRES   REMARKS
BOSTON         PTCLDY    58  53  84 N5        30.31R                  
BEVERLY        CLEAR     51  50  96 CALM      30.30R                  
LAWRENCE       CLEAR     53  52  96 CALM      30.33R                  
BEDFORD        PTCLDY    49  49 100 CALM      30.30R FOG              
BLUE HILL      NOT AVBL                                               
NORWOOD        MOCLDY    47  44  90 CALM      30.31R                  
MARSHFIELD     CLEAR     50  48  93 CALM      30.30R                  
PLYMOUTH       CLEAR     50  48  93 CALM      30.30R                  
TAUNTON        CLEAR     46  44  93 CALM      30.30R                  
NEW BEDFORD    CLEAR     49  48  97 CALM      30.29R FOG              
$$

MAZALL-201100-
CAPE COD AND THE ISLANDS
  
CITY           SKY/WX    TMP DP  RH WIND       PRES   REMARKS
FALMOUTH       CLEAR     48  48 100 CALM      30.27                   
HYANNIS        CLEAR     49  48  97 CALM      30.28R                  
CHATHAM        CLEAR     55  53  93 CALM      30.29S                  
PROVINCETOWN   CLEAR     50  48  93 NE5       30.30S                  
NANTUCKET      CLEAR     55  52  89 N6        30.28R                  
MARTHAS VNYRD  CLEAR     44  43  96 NW3       30.29R                  
$$
 
MAZALL-201100-
CENTRAL AND WESTERN MASSACHUSETTS
  
CITY           SKY/WX    TMP DP  RH WIND       PRES   REMARKS
WORCESTER      CLEAR     53  51  93 SW3       30.31R                  
FITCHBURG      CLEAR     49  47  93 NW3       30.32R                  
ORANGE         CLEAR     46  45  96 CALM      30.33R                  
SPRINGFIELD    CLEAR     48  48  99 CALM      30.30R                  
WESTFIELD      CLEAR     51  51 100 N6        30.31R                  
NORTH ADAMS    CLEAR     46  43  89 CALM      30.33R                  
PITTSFIELD     PTCLDY    46  45  96 CALM      30.31R                  
$$
 
RIZALL-201100-
RHODE ISLAND
  
CITY           SKY/WX    TMP DP  RH WIND       PRES   REMARKS
PROVIDENCE     CLEAR     54  52  93 CALM      30.31R                  
NEWPORT        CLEAR     54  53  97 CALM      30.30R                  
SMITHFIELD     CLEAR     50  49  96 CALM      30.31R                  
WESTERLY       CLEAR     50  50 100 CALM      30.30R                  
$$
 
CTZALL-201100-
CONNECTICUT
  
CITY           SKY/WX    TMP DP  RH WIND       PRES   REMARKS
BRADLEY INTL   PTCLDY    52  51  97 N5        30.31R                  
HARTFORD       PTCLDY    55  52  89 CALM      30.30R                  
BRIDGEPORT     CLEAR     59  54  83 N6        30.29R                  
DANBURY        CLEAR     52  49  89 CALM      30.31R                  
GROTON         CLEAR     54  53  97 N5        30.29R                  
NEW HAVEN      CLEAR     58  55  90 N7        30.29R                  
CHESTER        FAIR      55  55 100 CALM      30.30R                  
MERIDEN        CLOUDY    56  53  90 CALM      30.30R                  
WILLIMANTIC    CLEAR     51  49  92 CALM      30.31R                  
OXFORD         CLEAR     54  52  93 NE3       30.31R                  
$$

MEZ002-015-021-024-NHZ003-005-008-011-012-014-VTZ005-008-201100-
NORTHERN NEW ENGLAND
  
CITY           SKY/WX    TMP DP  RH WIND       PRES   REMARKS
PORTLAND ME    PTCLDY    48  47  96 NW3       30.33R                  
BANGOR ME      PTCLDY    45  43  93 CALM      30.33R                  
CONCORD NH     CLEAR     45  43  93 CALM      30.32S                  
MANCHESTER NH  CLEAR     53  49  86 N5        30.30R                  
NASHUA NH      CLEAR     50  50 100 NW3       30.33R                  
PORTSMOUTH NH  CLEAR     49  48  95 W3        30.32S                  
JAFFREY NH     CLEAR     45  45 100 CALM      30.32R                  
KEENE NH       FOG       47  47 100 CALM      30.33R VSB 1/4          
BURLINGTON VT  CLEAR     48  46  93 CALM      30.30R                  
MT. WASHINGTON PTCLDY    48  -4  11 NW17        N/A                   
$$

NYZ052-076-201100-
EASTERN NEW YORK
  
CITY           SKY/WX    TMP DP  RH WIND       PRES   REMARKS
ALBANY         PTCLDY    47  47 100 CALM      30.31R                  
NEW YORK CITY  PTCLDY    65  54  67 NE6       30.28R                  
$$
 
ANZALL-201100-
MARINE OBSERVATIONS
  
STATION/POSITION TIME  TEMP    WIND        PRES    VSBY  WAVE
                       AIR SEA DIR/SP/G                  HT/PER
                 (UTC) (F)     (DEG/KT/KT) (MB)    (MI)  (FT/S)
BOSTON BUOY      0940      65  360/  8/  8 1026.4R
BUZZARDS BAY     0900           60/  4/  5 1026.3R
NANTUCKET SOUND  0940   67 72   40/ 10/ 12 1025.3R
MASS BAY-STELLWA 0904   62     360/  6/  6 1025.9R  1 7/8  3/ 8
ISLE OF SHOALS   0900   61      10/  6/  6 1025.7R
S OF BLOCK IS    0926      71                N/A           3/ 6
$$

......................KEY.........................
  SKY/WX - SKY CONDITION/PRESENT WEATHER
  TMP    - TEMPERATURE IN FAHRENHEIT
  DWPT   - DEWPOINT IN FAHRENHEIT
  RH     - RELATIVE HUMIDITY IN PERCENT
  WIND   - DIRECTION AND SPEED IN MPH
  PRES   - MEAN SEA LEVEL PRESSURE IN INCHES OF HG
  WCI    - WIND CHILL INDEX
  VSB    - VISIBILITY IN MILES
  HX     - HEAT INDEX
  TC     - TEMPERATURE IN CELSIUS
  VRB    - VARIABLE WIND DIRECTION
  N/A    - NOT AVAILABLE
  
      

Other recent Regional Weather Roundups

Thu Sep 23, 5:04am

Thu Sep 23, 4:04am

Thu Sep 23, 3:04am

Thu Sep 23, 2:04am

Thu Sep 23, 1:04am

Thu Sep 23, 12:04am

Wed Sep 22, 11:04pm

Wed Sep 22, 10:04pm

Wed Sep 22, 9:04pm

Wed Sep 22, 8:04pm

Wed Sep 22, 7:04pm

Wed Sep 22, 6:04pm

Wed Sep 22, 5:04pm

Wed Sep 22, 4:04pm

Wed Sep 22, 3:04pm

Wed Sep 22, 2:04pm

Wed Sep 22, 1:04pm

Wed Sep 22, 12:05pm

Wed Sep 22, 11:04am

Wed Sep 22, 10:04am

Wed Sep 22, 9:04am

Wed Sep 22, 8:04am

Wed Sep 22, 7:04am

Wed Sep 22, 6:04am

Wed Sep 22, 5:04am

Wed Sep 22, 4:04am

Wed Sep 22, 3:04am

Wed Sep 22, 2:04am

Wed Sep 22, 1:04am

Wed Sep 22, 12:04am

Tue Sep 21, 11:04pm

Tue Sep 21, 10:04pm

Tue Sep 21, 9:04pm

Tue Sep 21, 8:04pm

Tue Sep 21, 7:04pm

Tue Sep 21, 6:04pm

Tue Sep 21, 5:04pm

Tue Sep 21, 4:04pm

Tue Sep 21, 3:04pm

Tue Sep 21, 2:04pm

Tue Sep 21, 1:04pm

Tue Sep 21, 12:04pm

Tue Sep 21, 11:04am

Tue Sep 21, 10:04am

Tue Sep 21, 9:04am

Tue Sep 21, 8:04am

Tue Sep 21, 7:04am

Tue Sep 21, 6:04am

Tue Sep 21, 5:04am

Tue Sep 21, 4:04am

Tue Sep 21, 3:04am

Tue Sep 21, 2:04am

Tue Sep 21, 1:04am

Tue Sep 21, 12:04am

Mon Sep 20, 11:04pm

Mon Sep 20, 10:04pm

Mon Sep 20, 9:04pm

Mon Sep 20, 8:04pm

Mon Sep 20, 7:04pm

Mon Sep 20, 6:04pm

Mon Sep 20, 5:04pm

Mon Sep 20, 4:04pm

Mon Sep 20, 3:04pm

Mon Sep 20, 2:04pm

Mon Sep 20, 1:04pm

Mon Sep 20, 12:04pm

Mon Sep 20, 11:04am

Mon Sep 20, 10:04am

Mon Sep 20, 9:04am

Mon Sep 20, 7:04am

Mon Sep 20, 5:04am

Mon Sep 20, 4:04am

Mon Sep 20, 3:04am

Mon Sep 20, 2:04am

Mon Sep 20, 1:04am

Mon Sep 20, 12:04am

Sun Sep 19, 11:04pm

Sun Sep 19, 10:04pm

Sun Sep 19, 9:04pm

Sun Sep 19, 8:04pm

Sun Sep 19, 7:04pm

Sun Sep 19, 6:04pm

Sun Sep 19, 5:04pm

Sun Sep 19, 4:04pm

Sun Sep 19, 3:04pm

Sun Sep 19, 2:05pm

Sun Sep 19, 1:04pm

Sun Sep 19, 12:04pm

Sun Sep 19, 11:04am

Sun Sep 19, 10:05am

Sun Sep 19, 9:04am

Sun Sep 19, 8:04am

Sun Sep 19, 7:04am

Sun Sep 19, 6:04am

Sun Sep 19, 5:04am

Sun Sep 19, 4:04am

Sun Sep 19, 3:04am

Sun Sep 19, 2:04am

Sun Sep 19, 1:04am

Sun Sep 19, 12:04am

Sat Sep 18, 11:05pm

Sat Sep 18, 10:04pm

Sat Sep 18, 9:04pm

Sat Sep 18, 8:04pm

Sat Sep 18, 7:04pm

Sat Sep 18, 6:04pm

Sat Sep 18, 5:04pm

Sat Sep 18, 4:04pm

Sat Sep 18, 3:04pm

Sat Sep 18, 2:04pm

Sat Sep 18, 1:04pm

Sat Sep 18, 12:04pm

Sat Sep 18, 11:04am

Sat Sep 18, 10:04am

Sat Sep 18, 9:04am

Sat Sep 18, 8:04am

Sat Sep 18, 7:04am

Sat Sep 18, 6:04am

Sat Sep 18, 5:04am

Sat Sep 18, 4:04am

Sat Sep 18, 3:04am

Sat Sep 18, 2:04am

Sat Sep 18, 1:04am

Sat Sep 18, 12:04am

Fri Sep 17, 11:04pm

Fri Sep 17, 10:04pm

Fri Sep 17, 9:04pm

Fri Sep 17, 8:04pm

Fri Sep 17, 7:04pm

Fri Sep 17, 6:04pm

Fri Sep 17, 5:04pm

Fri Sep 17, 4:04pm

Fri Sep 17, 3:04pm

Fri Sep 17, 2:04pm

Fri Sep 17, 1:04pm

Fri Sep 17, 12:05pm

Fri Sep 17, 11:04am

Fri Sep 17, 10:04am

Fri Sep 17, 9:04am

Fri Sep 17, 8:04am

Fri Sep 17, 7:04am

Fri Sep 17, 6:04am

Fri Sep 17, 5:04am

Fri Sep 17, 4:04am

Fri Sep 17, 3:04am

Fri Sep 17, 2:04am

Fri Sep 17, 1:04am

Fri Sep 17, 12:04am

Thu Sep 16, 11:04pm

Thu Sep 16, 10:04pm

Thu Sep 16, 9:04pm

Thu Sep 16, 8:04pm

Thu Sep 16, 7:04pm

Thu Sep 16, 6:04pm

Thu Sep 16, 5:04pm

Thu Sep 16, 4:04pm

Thu Sep 16, 3:04pm

Thu Sep 16, 2:04pm

Thu Sep 16, 1:05pm

Thu Sep 16, 12:04pm

Thu Sep 16, 11:05am

Thu Sep 16, 10:05am

Thu Sep 16, 9:04am

Thu Sep 16, 8:04am

Thu Sep 16, 7:04am

Thu Sep 16, 6:04am

Meta data:

ID: abad0906-886e-4463-b0b9-daca9a868f58
Link: https://api.weather.gov/products/abad0906-886e-4463-b0b9-daca9a868f58